Belize City, Belize

2:19 AM CST on February 25, 2017 (GMT -0600)
Philip S W Goldson International

Weather History for MZBZ - November, 2011

Change the Weather History Date:

Friday, November 4, 2011

  Actual Average Record
Temperature  
Mean Temperature 78 °F -  
Max Temperature 83 °F 85 °F 89 °F (1998)
Min Temperature 73 °F 71 °F 68 °F (2008)
Cooling Degree Days 13    
Growing Degree Days 28 (Base 50)    
Moisture  
Dew Point 72 °F    
Average Humidity 81    
Maximum Humidity 100    
Minimum Humidity 55    
Precipitation  
Precipitation 0.00 in 0.24 in - ()
Sea Level Pressure  
Sea Level Pressure 29.96 in    
Wind  
Wind Speed 4 mph ()    
Max Wind Speed 12 mph    
Max Gust Speed -    
Visibility 7.8 miles    
Events Rain    
Averages and records for this station are not official NWS values.
T = Trace of Precipitation, MM = Missing Value Source: Averaged Metar Reports

Daily Weather History Graph

Daily Weather History Graph

Search for Another Location

Airport or City:

Trip Planner

Search our weather history database for the weather conditions in past years. The results will help you decide how hot, cold, wet, or windy it might be!

Date:

Astronomy

Nov. 04, 2011 Rise Set
Actual Time 5:52 AM CST 5:20 PM CST
Civil Twilight 5:30 AM CST 5:42 PM CST
Nautical Twilight 5:04 AM CST 6:08 PM CST
Astronomical Twilight 4:38 AM CST 6:34 PM CST
Moon 1:29 PM CST (11/4) 12:52 AM CST (11/4)
Length of Visible Light 12h 12m
Length of Day
11h 27m
Waxing Gibbous, 70% of the Moon is Illuminated
Nov 4
Waxing Gibbous
Nov 10
Full
Nov 18
Last Quarter
Nov 25
New
Dec 2
First Quarter

Hourly Weather History & Observations

Time (CST) Temp. Heat Index Dew Point Humidity Pressure Visibility Wind Dir Wind Speed Gust Speed Precip Events Conditions
12:00 AM 74 °F - 74 °F 99% 29.97 in 12 mi Calm Calm - -  
12:00 AM 75.2 °F - 73.4 °F 94% 29.95 in 6.2 mi Calm Calm - N/A   Mostly Cloudy
3:00 AM 74 °F - 73 °F 97% 29.94 in 12 mi WNW 3.5 mph - -   Scattered Clouds
3:00 AM 73.4 °F - 73.4 °F 100% 29.92 in 6.2 mi WNW 3.5 mph - N/A   Partly Cloudy
6:00 AM 73 °F - 73 °F 99% 29.96 in 9 mi WNW 4.6 mph - -  
6:00 AM 73.4 °F - 73.4 °F 100% 29.95 in 6.2 mi WNW 4.6 mph - N/A   Mostly Cloudy
7:00 AM 73.4 °F - 73.4 °F 100% 29.98 in 6.2 mi WNW 4.6 mph - N/A   Mostly Cloudy
8:00 AM 77.0 °F - 75.2 °F 94% 29.98 in 6.2 mi North 8.1 mph - N/A   Scattered Clouds
9:00 AM 78 °F - 73 °F 80% 30.01 in 12 mi NNW 9.2 mph - -   Partly Cloudy
9:00 AM 78.8 °F - 73.4 °F 83% 30.01 in 6.2 mi NNW 9.2 mph - N/A   Mostly Cloudy
10:00 AM 80.6 °F 85.4 °F 73.4 °F 79% 30.00 in 6.2 mi NNW 9.2 mph - N/A   Mostly Cloudy
11:00 AM 82.4 °F 88.2 °F 73.4 °F 74% 29.98 in 6.2 mi North 11.5 mph - N/A   Mostly Cloudy
12:00 PM 83 °F - 72 °F 62% 29.96 in 12 mi North 9.2 mph - -   Partly Cloudy
12:00 PM 82.4 °F 87.2 °F 71.6 °F 70% 29.96 in 6.2 mi North 9.2 mph - N/A   Mostly Cloudy
1:00 PM 82.4 °F 88.2 °F 73.4 °F 74% 29.94 in 6.2 mi ENE 6.9 mph - N/A   Mostly Cloudy
2:00 PM 82.4 °F 87.2 °F 71.6 °F 70% 29.91 in 6.2 mi North 8.1 mph - N/A   Mostly Cloudy
3:00 PM 83 °F - 69 °F 55% 29.92 in 12 mi North 8.1 mph - - Rain Light Rain
3:00 PM 82.4 °F 86.3 °F 69.8 °F 66% 29.91 in 6.2 mi North 8.1 mph - N/A Rain Light Rain
4:00 PM 82.4 °F 86.3 °F 69.8 °F 66% 29.91 in 6.2 mi North 8.1 mph - N/A   Mostly Cloudy
5:00 PM 80.6 °F 83.9 °F 69.8 °F 70% 29.93 in 6.2 mi North 4.6 mph - N/A   Mostly Cloudy
6:00 PM 80 °F - 70 °F 65% 29.94 in 12 mi NNW 4.6 mph - -   Partly Cloudy
6:00 PM 80.6 °F 83.9 °F 69.8 °F 70% 29.94 in 6.2 mi NNW 4.6 mph - N/A   Mostly Cloudy
7:00 PM 78.8 °F - 69.8 °F 74% 29.95 in 6.2 mi NW 4.6 mph - N/A   Mostly Cloudy
9:00 PM - - 73 °F % 29.98 in 12 mi NNW 3.5 mph - -   Mostly Cloudy
9:00 PM 77.0 °F - 73.4 °F 89% 29.97 in 6.2 mi NNW 3.5 mph - N/A   Mostly Cloudy
10:00 PM 77.0 °F - 71.6 °F 83% 29.98 in 6.2 mi Calm Calm - N/A   Mostly Cloudy
11:00 PM 75.2 °F - 71.6 °F 89% 29.98 in 6.2 mi Calm Calm - N/A   Mostly Cloudy